{"data":{"norad_id":63253,"intl_designator":"2025-052AV","name":"ICEYE-X48","alt_names":[],"object_type":"PAYLOAD","status":"ACTIVE","operator":null,"country":"US","launch_date":"2025-03-15","launch_site_code":"AFWTR","launch_vehicle":null,"mission":null,"orbit_class":"UNKNOWN","rcs_meters":null,"size_class":null,"mass_kg":null,"dimensions":null,"purposes":[],"wikipedia_slug":null,"has_3d_model":false,"image_url":null,"decayed_at":null,"tle_current":{"epoch":"2026-05-25T03:26:17.505888Z","epoch_age_seconds":72843,"freshness":"FRESH","line1":"1 63253U 25052AV  26145.14325817  .00001845  00000+0  16194-3 0  9993","line2":"2 63253  97.6904  37.6836 0001125 332.4762  27.6400 14.97821164 65222","mean_motion":14.97821164,"eccentricity":0.0001125,"inclination_deg":97.6904,"raan_deg":37.6836,"arg_perigee_deg":332.4762,"mean_anomaly_deg":27.64,"bstar":0.00016194,"rev_number":6522,"period_min":96.139648351237,"perigee_km":572.84779597468,"apogee_km":574.41194352037,"semimajor_km":6951.7668697475,"source":"CELESTRAK","updated_at":"2026-05-25T13:38:03.607735Z"}}}